Tracking 34142 objects as of 18-May-2026
HD Live streaming from Space Station
objects crossing your sky now

STARLINK-37541

Track STARLINK-37541 now!
10-day predictions
STARLINK-37541 is classified as:


NORAD ID: 68906
Int'l Code: 2026-097M
Perigee: 381.2 km
Apogee: 382.9 km
Inclination: 97.3 °
Period: 92.0 minutes
Semi major axis: 6753 km
RCS: Unknown
Launch date: April 30, 2026
Source: United States (US)
Launch site: AIR FORCE WESTERN TEST RANGE (AFWTR)
Your satellite tracking list
Your tracking list is empty




NASA's NSSDC Master Catalog

Two Line Element Set (TLE):
1 68906U 26097M   26137.83335647 -.02213061  00000-0 -26679-1 0  9999
2 68906  97.2841 333.4939 0001295  81.1271 334.8921 15.64412247  4047
Source of the keplerian elements: AFSPC